When you browse on this site, cookies collect data to enhance your experience and personalize the content and advertising you see.
Visit our Privacy Policy to learn more. By continuing to use the site, you agree to this use of cookies and data.
  • In Hungary
  • List of Countries
  • For 7 days
  • Water Temperature
  • Weather Map
  • News
  • Weather Widgets
  • user-avatar
    Login

    Hourly Weather Pobedinschina

    Today, 29 March, Sunday

    Time Temperature Precipitation Wind Pressure Humidity
    00:00 +9°C° 0 mm 1 mps 746 mmHg 73%
    01:00 +8°C° 0 mm 0 mps 746 mmHg 75%
    02:00 +7°C° 0 mm 0 mps 745 mmHg 74%
    03:00 +7°C° 0 mm 0 mps 744 mmHg 74%
    04:00 +7°C° 0 mm 0 mps 744 mmHg 75%
    05:00 +8°C° 0 mm 1 mps 743 mmHg 76%
    06:00 +8°C° 0 mm 1 mps 743 mmHg 74%
    07:00 +9°C° 0 mm 1 mps 743 mmHg 72%
    08:00 +8°C° 0 mm 0 mps 743 mmHg 70%
    09:00 +10°C° 0 mm 1 mps 743 mmHg 67%
    10:00 +11°C° 0 mm 1 mps 743 mmHg 64%
    11:00 +12°C° 0 mm 2 mps 743 mmHg 61%
    12:00 +11°C° 0.2 mm 3 mps 743 mmHg 62%
    13:00 +11°C° 0.2 mm 4 mps 742 mmHg 63%
    14:00 +10°C° 0.2 mm 5 mps 742 mmHg 65%
    15:00 +7°C° 0.7 mm 5 mps 742 mmHg 71%
    16:00 +4°C° 0.7 mm 6 mps 742 mmHg 78%
    17:00 +2°C° 0.7 mm 7 mps 742 mmHg 85%
    18:00 0°C° 0.3 mm 7 mps 743 mmHg 85%
    19:00 -2°C° 0.3 mm 7 mps 743 mmHg 86%
    20:00 -3°C° 0.3 mm 7 mps 744 mmHg 86%
    21:00 -3°C° 0.1 mm 7 mps 744 mmHg 83%
    22:00 -4°C° 0.1 mm 7 mps 744 mmHg 80%
    23:00 -4°C° 0.1 mm 7 mps 744 mmHg 77%

    Tomorrow, 30 March, Monday

    Time Temperature Precipitation Wind Pressure Humidity
    00:00 -4°C° 0 mm 7 mps 744 mmHg 72%
    01:00 -4°C° 0 mm 6 mps 744 mmHg 67%
    02:00 -5°C° 0 mm 6 mps 745 mmHg 62%
    03:00 -5°C° 0 mm 6 mps 745 mmHg 58%
    04:00 -5°C° 0 mm 6 mps 745 mmHg 54%
    05:00 -5°C° 0 mm 6 mps 745 mmHg 49%
    06:00 -5°C° 0 mm 6 mps 745 mmHg 48%
    07:00 -6°C° 0 mm 7 mps 746 mmHg 46%
    08:00 -6°C° 0 mm 7 mps 746 mmHg 45%
    09:00 -4°C° 0 mm 6 mps 746 mmHg 43%
    10:00 -3°C° 0 mm 6 mps 746 mmHg 41%
    11:00 -3°C° 0 mm 6 mps 747 mmHg 39%
    12:00 -2°C° 0 mm 6 mps 747 mmHg 38%
    13:00 -2°C° 0 mm 6 mps 747 mmHg 37%
    14:00 -1°C° 0 mm 6 mps 747 mmHg 36%
    15:00 -1°C° 0 mm 5 mps 747 mmHg 36%
    16:00 -1°C° 0 mm 5 mps 748 mmHg 37%
    17:00 -1°C° 0 mm 5 mps 748 mmHg 37%
    18:00 -2°C° 0 mm 4 mps 748 mmHg 41%
    19:00 -3°C° 0 mm 4 mps 749 mmHg 45%
    20:00 -4°C° 0 mm 3 mps 749 mmHg 48%
    21:00 -4°C° 0 mm 3 mps 749 mmHg 49%
    22:00 -4°C° 0 mm 3 mps 750 mmHg 50%
    23:00 -4°C° 0 mm 2 mps 750 mmHg 51%

    Day after tomorrow, 31 March, Tuesday

    Time Temperature Precipitation Wind Pressure Humidity
    00:00 -4°C° 0 mm 2 mps 750 mmHg 51%
    01:00 -4°C° 0 mm 2 mps 751 mmHg 52%
    02:00 -4°C° 0 mm 2 mps 751 mmHg 52%
    03:00 -4°C° 0 mm 2 mps 751 mmHg 54%
    04:00 -5°C° 0 mm 2 mps 751 mmHg 55%
    05:00 -5°C° 0 mm 2 mps 752 mmHg 57%
    06:00 -5°C° 0 mm 3 mps 752 mmHg 53%
    07:00 -4°C° 0 mm 3 mps 752 mmHg 49%
    08:00 -4°C° 0 mm 3 mps 753 mmHg 45%
    09:00 -2°C° 0 mm 3 mps 753 mmHg 39%
    10:00 -1°C° 0 mm 3 mps 753 mmHg 33%
    11:00 0°C° 0 mm 3 mps 753 mmHg 27%
    12:00 0°C° 0 mm 3 mps 753 mmHg 27%
    13:00 +1°C° 0 mm 3 mps 753 mmHg 26%
    14:00 +1°C° 0 mm 3 mps 753 mmHg 26%
    15:00 +2°C° 0 mm 2 mps 752 mmHg 28%
    16:00 +1°C° 0 mm 2 mps 752 mmHg 30%
    17:00 +1°C° 0 mm 2 mps 752 mmHg 33%
    18:00 -1°C° 0 mm 2 mps 752 mmHg 39%
    19:00 -2°C° 0 mm 2 mps 751 mmHg 45%
    20:00 -1°C° 0 mm 1 mps 751 mmHg 52%
    21:00 -1°C° 0 mm 1 mps 751 mmHg 55%
    22:00 -4°C° 0 mm 2 mps 751 mmHg 58%
    23:00 -4°C° 0 mm 2 mps 750 mmHg 61%

    1 April, Wednesday

    Time Temperature Precipitation Wind Pressure Humidity
    00:00 -4°C° 0 mm 2 mps 750 mmHg 64%
    01:00 -4°C° 0 mm 3 mps 750 mmHg 66%
    02:00 -4°C° 0 mm 3 mps 749 mmHg 69%
    03:00 -4°C° 0 mm 3 mps 748 mmHg 68%
    04:00 -4°C° 0 mm 4 mps 748 mmHg 68%
    05:00 -3°C° 0 mm 4 mps 747 mmHg 67%
    06:00 -4°C° 0 mm 5 mps 747 mmHg 62%
    07:00 -3°C° 0 mm 6 mps 746 mmHg 57%
    08:00 -2°C° 0 mm 7 mps 746 mmHg 53%
    09:00 -2°C° 0 mm 7 mps 745 mmHg 51%
    10:00 -1°C° 0 mm 8 mps 744 mmHg 49%
    11:00 0°C° 0 mm 8 mps 744 mmHg 47%
    12:00 0°C° 0 mm 8 mps 743 mmHg 47%
    13:00 0°C° 0 mm 8 mps 743 mmHg 47%
    14:00 +1°C° 0 mm 8 mps 743 mmHg 47%
    15:00 0°C° 0.1 mm 8 mps 742 mmHg 58%
    16:00 0°C° 0.1 mm 8 mps 741 mmHg 69%
    17:00 -1°C° 0.1 mm 7 mps 741 mmHg 80%
    18:00 -1°C° 0.1 mm 7 mps 741 mmHg 85%
    19:00 -1°C° 0.1 mm 7 mps 741 mmHg 89%
    20:00 -2°C° 0.1 mm 7 mps 741 mmHg 93%
    21:00 -1°C° 0.2 mm 6 mps 741 mmHg 92%
    22:00 0°C° 0.2 mm 5 mps 741 mmHg 92%
    23:00 0°C° 0.2 mm 5 mps 741 mmHg 92%

    2 April, Thursday

    Time Temperature Precipitation Wind Pressure Humidity
    00:00 -1°C° 0.1 mm 4 mps 741 mmHg 93%
    01:00 0°C° 0.1 mm 3 mps 741 mmHg 95%
    02:00 0°C° 0.1 mm 3 mps 741 mmHg 96%
    03:00 0°C° 0.1 mm 3 mps 740 mmHg 96%
    04:00 0°C° 0.1 mm 3 mps 740 mmHg 97%
    05:00 0°C° 0.1 mm 3 mps 740 mmHg 97%
    06:00 0°C° 0.3 mm 3 mps 740 mmHg 96%
    07:00 0°C° 0.3 mm 3 mps 740 mmHg 95%
    08:00 0°C° 0.3 mm 3 mps 740 mmHg 95%
    09:00 +1°C° 0.3 mm 3 mps 740 mmHg 95%
    10:00 +1°C° 0.3 mm 3 mps 740 mmHg 95%
    11:00 +1°C° 0.3 mm 3 mps 739 mmHg 95%
    12:00 +1°C° 0.2 mm 3 mps 739 mmHg 95%
    13:00 +1°C° 0.2 mm 4 mps 739 mmHg 94%
    14:00 +1°C° 0.2 mm 4 mps 740 mmHg 94%
    15:00 +2°C° 0.1 mm 3 mps 739 mmHg 92%
    16:00 +2°C° 0.1 mm 3 mps 739 mmHg 90%
    17:00 +3°C° 0.1 mm 3 mps 739 mmHg 88%
    18:00 +2°C° 0 mm 3 mps 739 mmHg 89%
    19:00 +2°C° 0 mm 3 mps 739 mmHg 90%
    20:00 +2°C° 0 mm 3 mps 739 mmHg 91%
    21:00 +1°C° 0.1 mm 4 mps 739 mmHg 92%
    22:00 +1°C° 0.1 mm 4 mps 739 mmHg 94%
    23:00 +1°C° 0.1 mm 4 mps 739 mmHg 95%

    3 April, Friday

    Time Temperature Precipitation Wind Pressure Humidity
    00:00 +1°C° 0.2 mm 4 mps 739 mmHg 95%
    01:00 +1°C° 0.2 mm 5 mps 739 mmHg 94%
    02:00 +1°C° 0.2 mm 5 mps 739 mmHg 94%
    03:00 +1°C° 0.2 mm 5 mps 739 mmHg 93%
    04:00 +1°C° 0.2 mm 5 mps 739 mmHg 92%
    05:00 +1°C° 0.2 mm 4 mps 739 mmHg 91%
    06:00 +1°C° 0 mm 5 mps 739 mmHg 88%
    07:00 +2°C° 0 mm 5 mps 739 mmHg 85%
    08:00 +2°C° 0 mm 6 mps 739 mmHg 82%
    09:00 +2°C° 0 mm 6 mps 739 mmHg 79%
    10:00 +3°C° 0 mm 6 mps 739 mmHg 76%
    11:00 +3°C° 0 mm 7 mps 739 mmHg 73%
    12:00 +3°C° 0 mm 7 mps 738 mmHg 71%
    13:00 +4°C° 0 mm 7 mps 738 mmHg 69%
    14:00 +4°C° 0 mm 8 mps 738 mmHg 68%
    15:00 +4°C° 0 mm 8 mps 738 mmHg 67%
    16:00 +4°C° 0 mm 8 mps 737 mmHg 66%
    17:00 +5°C° 0 mm 7 mps 737 mmHg 65%
    18:00 +4°C° 0 mm 7 mps 737 mmHg 67%
    19:00 +4°C° 0 mm 7 mps 737 mmHg 68%
    20:00 +4°C° 0 mm 7 mps 736 mmHg 70%
    21:00 +3°C° 0.1 mm 7 mps 736 mmHg 72%
    22:00 +3°C° 0.1 mm 7 mps 736 mmHg 75%
    23:00 +3°C° 0.1 mm 7 mps 736 mmHg 77%
    Show more